TimeCST,TemperatureF,Dew PointF,Humidity,Sea Level PressureIn,VisibilityMPH,Wind Direction,Wind SpeedMPH,Gust SpeedMPH,PrecipitationIn,Events,Conditions,WindDirDegrees,DateUTC
12:15 AM,40.5,35.1,81,29.99,10.0,SE,11.5,-,N/A,,Overcast,140,2012-12-15 06:15:00
12:35 AM,41.4,35.1,78,29.98,10.0,SE,15.0,-,N/A,,Overcast,140,2012-12-15 06:35:00
12:55 AM,41.0,34.7,78,29.97,10.0,SE,12.7,-,N/A,,Overcast,140,2012-12-15 06:55:00
1:15 AM,41.0,34.7,78,29.97,10.0,SE,11.5,-,N/A,,Overcast,140,2012-12-15 07:15:00
1:35 AM,41.2,34.5,77,29.97,10.0,SE,11.5,-,N/A,,Overcast,140,2012-12-15 07:35:00
1:55 AM,41.4,34.5,77,29.96,10.0,SE,13.8,-,N/A,,Overcast,140,2012-12-15 07:55:00
2:15 AM,41.4,34.7,77,29.95,10.0,SE,11.5,-,N/A,,Overcast,140,2012-12-15 08:15:00
2:35 AM,41.4,34.9,78,29.95,10.0,SE,12.7,-,N/A,,Light Drizzle,140,2012-12-15 08:35:00
2:55 AM,41.4,35.1,78,29.95,10.0,SSE,12.7,-,N/A,,Overcast,150,2012-12-15 08:55:00
3:15 AM,41.4,35.2,79,29.94,10.0,SSE,15.0,-,N/A,,Overcast,150,2012-12-15 09:15:00
3:35 AM,41.4,34.9,78,29.93,10.0,SSE,13.8,-,N/A,,Overcast,150,2012-12-15 09:35:00
3:55 AM,41.7,34.9,77,29.94,10.0,SSE,15.0,-,N/A,,Overcast,160,2012-12-15 09:55:00
4:15 AM,41.0,35.1,79,29.93,10.0,SSE,11.5,-,N/A,,Overcast,160,2012-12-15 10:15:00
4:35 AM,41.4,35.4,79,29.92,10.0,SSE,11.5,-,N/A,Rain,Light Rain,150,2012-12-15 10:35:00
4:55 AM,41.4,35.4,79,29.90,10.0,SE,12.7,-,N/A,,Overcast,130,2012-12-15 10:55:00
5:15 AM,41.5,35.1,78,29.89,10.0,SE,12.7,-,N/A,,Overcast,130,2012-12-15 11:15:00
5:35 AM,41.0,35.2,80,29.87,10.0,ESE,12.7,-,N/A,,Drizzle,120,2012-12-15 11:35:00
5:55 AM,40.8,35.6,82,29.85,7.0,ESE,12.7,19.6,0.01,Rain,Light Rain,120,2012-12-15 11:55:00
6:15 AM,40.8,35.8,82,29.82,10.0,ESE,16.1,-,N/A,Rain,Light Rain,120,2012-12-15 12:15:00
6:35 AM,41.2,36.0,82,29.82,10.0,ESE,16.1,21.9,N/A,,Overcast,120,2012-12-15 12:35:00
6:55 AM,41.9,36.3,81,29.82,10.0,SE,17.3,23.0,0.01,Rain,Light Rain,140,2012-12-15 12:55:00
7:15 AM,41.0,36.5,84,29.82,10.0,SE,16.1,-,N/A,Rain,Light Rain,140,2012-12-15 13:15:00
7:35 AM,41.0,36.7,85,29.80,10.0,ESE,15.0,-,0.01,Rain,Light Rain,120,2012-12-15 13:35:00
7:55 AM,41.0,37.4,87,29.76,7.0,ESE,23.0,27.6,0.02,Rain,Light Rain,120,2012-12-15 13:55:00
8:15 AM,41.5,37.8,86,29.75,7.0,SE,20.7,31.1,0.01,,Drizzle,130,2012-12-15 14:15:00
8:35 AM,41.7,38.3,88,29.75,7.0,ESE,20.7,29.9,0.01,Rain,Rain,120,2012-12-15 14:35:00
8:55 AM,42.1,38.7,88,29.75,3.0,ESE,17.3,25.3,0.03,Rain,Light Rain,120,2012-12-15 14:55:00
9:15 AM,42.1,39.2,90,29.73,2.5,SE,18.4,23.0,0.03,Rain,Rain,130,2012-12-15 15:15:00
9:35 AM,42.1,39.4,90,29.72,1.5,SE,18.4,23.0,0.06,Rain,Light Rain,130,2012-12-15 15:35:00
9:55 AM,42.8,40.1,90,29.72,1.8,SE,17.3,24.2,0.08,Rain,Rain,140,2012-12-15 15:55:00
10:15 AM,43.0,40.5,91,29.72,2.0,SE,17.3,24.2,0.03,Rain,Light Rain,140,2012-12-15 16:15:00
10:35 AM,43.7,41.0,90,29.69,1.8,SE,19.6,-,0.04,Rain,Light Rain,140,2012-12-15 16:35:00
10:55 AM,44.4,41.9,91,29.68,2.0,SSE,19.6,25.3,0.04,,Drizzle,150,2012-12-15 16:55:00
11:15 AM,44.8,42.3,91,29.67,1.8,SSE,19.6,25.3,0.01,Rain,Light Rain,150,2012-12-15 17:15:00
11:35 AM,45.1,42.8,91,29.66,2.0,SSE,18.4,-,0.01,Rain,Light Rain,160,2012-12-15 17:35:00
11:55 AM,45.7,43.2,91,29.64,2.0,South,20.7,25.3,0.01,Rain,Light Rain,170,2012-12-15 17:55:00
12:15 PM,45.9,43.3,91,29.64,3.0,SSE,19.6,26.5,0.01,Rain,Light Rain,160,2012-12-15 18:15:00
12:35 PM,46.0,43.7,92,29.62,3.0,SSE,17.3,24.2,0.01,Rain,Light Rain,160,2012-12-15 18:35:00
12:55 PM,46.0,43.7,92,29.61,3.0,SSE,17.3,-,0.02,Rain,Light Rain,160,2012-12-15 18:55:00
1:15 PM,46.4,43.7,90,29.59,2.5,SSE,17.3,-,N/A,Rain,Light Rain,160,2012-12-15 19:15:00
1:35 PM,46.4,43.9,91,29.58,3.0,SSE,18.4,-,0.01,,Drizzle,160,2012-12-15 19:35:00
1:55 PM,46.6,44.1,91,29.57,4.0,SSE,16.1,-,0.01,,Light Drizzle,160,2012-12-15 19:55:00
2:15 PM,46.9,44.4,91,29.56,2.5,SSE,18.4,23.0,N/A,Rain,Rain,160,2012-12-15 20:15:00
2:35 PM,47.3,44.6,90,29.55,2.0,SSE,17.3,-,0.01,Rain,Light Rain,160,2012-12-15 20:35:00
2:55 PM,47.3,44.8,91,29.55,2.5,SSE,17.3,-,0.02,Rain,Rain,160,2012-12-15 20:55:00
3:15 PM,47.3,44.8,91,29.55,2.0,SSE,15.0,-,0.02,Rain,Rain,160,2012-12-15 21:15:00
3:35 PM,47.5,45.0,91,29.55,2.5,SSE,16.1,-,0.03,Rain,Rain,160,2012-12-15 21:35:00
3:55 PM,47.7,45.1,91,29.55,2.5,South,15.0,19.6,0.03,,Drizzle,170,2012-12-15 21:55:00
4:15 PM,48.2,45.5,90,29.55,4.0,South,12.7,-,N/A,Rain,Light Rain,180,2012-12-15 22:15:00
4:35 PM,48.4,45.9,91,29.55,5.0,South,13.8,-,N/A,Rain,Light Rain,190,2012-12-15 22:35:00
4:55 PM,48.6,46.0,91,29.55,3.0,SSW,13.8,-,0.01,Rain,Heavy Rain,200,2012-12-15 22:55:00
5:15 PM,48.7,46.2,91,29.56,4.0,SSW,11.5,-,0.01,Rain,Heavy Rain,210,2012-12-15 23:15:00
5:35 PM,48.7,46.2,91,29.57,4.0,SSW,11.5,-,0.02,,Light Drizzle,210,2012-12-15 23:35:00
5:55 PM,49.1,46.4,90,29.57,7.0,SSW,10.4,-,0.02,,Overcast,210,2012-12-15 23:55:00
6:15 PM,48.7,46.4,92,29.57,7.0,SSW,9.2,-,N/A,,Overcast,210,2012-12-16 00:15:00
6:35 PM,48.6,46.4,92,29.57,7.0,SSW,10.4,-,N/A,,Overcast,200,2012-12-16 00:35:00
6:55 PM,48.7,46.4,92,29.57,5.0,SSW,10.4,-,N/A,,Overcast,210,2012-12-16 00:55:00
7:15 PM,48.7,46.4,92,29.58,7.0,SSW,10.4,-,N/A,,Overcast,210,2012-12-16 01:15:00
7:35 PM,49.1,46.6,91,29.58,7.0,SW,11.5,-,N/A,,Overcast,220,2012-12-16 01:35:00
7:55 PM,49.1,46.6,91,29.58,10.0,SW,10.4,-,N/A,,Overcast,220,2012-12-16 01:55:00
8:15 PM,49.1,46.4,90,29.59,10.0,SW,10.4,-,N/A,,Overcast,220,2012-12-16 02:15:00
8:35 PM,49.1,46.4,90,29.58,10.0,SW,8.1,-,N/A,,Overcast,220,2012-12-16 02:35:00
8:55 PM,49.1,46.6,91,29.57,10.0,SW,8.1,-,N/A,,Overcast,220,2012-12-16 02:55:00
9:15 PM,49.1,46.4,90,29.57,10.0,SW,9.2,-,N/A,,Overcast,220,2012-12-16 03:15:00
9:35 PM,49.1,46.4,90,29.57,10.0,SSW,6.9,-,N/A,,Overcast,210,2012-12-16 03:35:00
9:55 PM,49.1,46.4,90,29.57,7.0,SW,8.1,-,N/A,,Overcast,220,2012-12-16 03:55:00
10:15 PM,49.1,46.4,90,29.57,7.0,SSW,10.4,-,N/A,,Overcast,210,2012-12-16 04:15:00
10:35 PM,48.7,46.4,92,29.57,5.0,SSW,9.2,-,N/A,,Light Drizzle,210,2012-12-16 04:35:00
10:55 PM,48.6,46.2,92,29.57,3.0,SW,9.2,-,N/A,Rain,Rain,220,2012-12-16 04:55:00
11:15 PM,48.4,46.0,92,29.57,5.0,SW,10.4,-,0.01,,Light Drizzle,220,2012-12-16 05:15:00
11:35 PM,48.4,46.0,92,29.57,10.0,SW,11.5,-,0.01,,Overcast,220,2012-12-16 05:35:00
11:55 PM,48.7,46.0,90,29.57,10.0,SW,12.7,-,0.01,,Overcast,220,2012-12-16 05:55:00